Location: Colonia Mina de C?rbuni
(46.1667°N, 22.7167°E)
Time: 15:36:41
(UTC+00:00)

Vanguard 1 Rocket - Pass Details

Date: 15 April 2024
Orbit: 650 x 4220 km, 34.3° (Epoch: 22 May)

Event Time Altitude Azimuth Distance (km) Brightness Sun altitude
Rises 22:28:50 0° 267° (W) 4,638 11.0 -33.6°
Reaches altitude 10° 22:31:37 10° 259° (W) 4,016 10.5 -33.6°
Enters shadow 22:34:11 20° 248° (WSW) 3,590 10.2 -33.6°
Exits shadow 22:58:12 12° 140° (SE) 6,552 11.4 -33.2°
Drops below altitude 10° 22:59:25 10° 138° (SE) 6,813 11.5 -33.2°
Sets 23:06:09 0° 132° (SE) 8,195 12.0 -33.0°
